Location: Rodson Ranch
(38.7188°N, 119.3202°W)
Time: 17:27:02
(UTC+00:00)

Cosmos 2026 Rocket - Pass Details

Date: 29 October 2020
Orbit: 939 x 1001 km, 82.9° (Epoch: 22 November)

Event Time Altitude Azimuth Distance (km) Brightness Sun altitude
Rises 12:58:09 0° 192° (SSW) 3,702 7.0 -16.8°
Reaches altitude 10° 13:00:41 10° 195° (SSW) 2,760 6.3 -16.3°
Maximum altitude 13:07:01 69° 278° (W) 1,069 4.0 -15.1°
Drops below altitude 10° 13:13:23 10° 2° (N) 2,775 6.3 -13.8°
Sets 13:15:56 0° 5° (N) 3,724 7.0 -13.4°
